Wind_Speed
7 4 3 3 3 6 7 10 11 12 12 12 13 13 16 18 17 19 19 20 21 22 24 23 23 22 20 19 21 21 23 21
3 1 2 4 8 9 11 14 15 17 17 16 18 17 20 23 22 21 21 22 22 23 24 22 23 24 24 24 23 22 26 22
3 5 7 9 10 12 13 16 17 19 20 20 21 21 23 23 25 24 24 23 23 24 25 26 26 26 24 24 25 24 27 29
6 6 6 10 12 14 15 18 20 22 24 26 25 25 24 22 23 24 25 27 29 31 32 32 32 31 29 28 28 27 27 27
9 10 11 12 13 17 19 21 21 23 26 27 27 27 28 29 29 29 31 33 34 34 34 35 34 32 33 32 29 29 29 29
14 14 14 18 20 23 22 24 26 27 27 29 31 32 32 32 33 35 36 36 37 37 38 37 33 31 29 29 31 30 28 27
14 19 21 19 22 24 26 28 31 32 31 33 33 34 35 35 37 38 39 39 39 38 37 35 35 35 34 31 29 31 32 31
17 25 8 22 22 26 30 33 35 34 34 38 38 37 40 40 41 40 38 37 37 36 36 35 34 36 36 36 35 34 34 35
26 24 29 20 30 31 34 32 35 37 44 43 43 42 45 45 45 43 41 41 41 41 41 41 42 43 42 42 43 43 43 41
29 34 31 35 35 36 40 42 42 47 48 49 50 47 46 47 46 47 46 46 46 46 47 48 51 53 52 52 51 51 50 49
30 32 35 37 34 42 44 46 49 51 53 55 56 55 53 49 50 52 52 52 53 53 54 55 56 58 59 58 56 56 55 55
35 37 40 41 45 46 47 50 50 53 57 56 54 54 53 55 58 59 59 58 57 59 60 61 63 63 62 62 62 61 61 62
36 39 42 45 48 49 51 52 55 57 58 57 57 57 58 57 57 59 62 62 63 65 67 68 69 71 73 72 71 70 69 70
39 42 45 48 49 50 52 54 56 54 54 56 58 60 60 62 63 64 65 68 70 72 73 74 75 77 80 80 79 77 76 74
44 46 47 49 51 51 52 51 50 52 54 56 59 61 61 64 67 69 73 76 78 80 80 80 79 79 81 82 82 83 82 78
45 47 46 47 49 50 50 49 51 53 55 58 60 63 67 70 74 78 79 81 82 82 83 84 84 84 81 82 83 84 84 81
46 48 50 50 47 46 47 49 52 54 57 60 64 68 73 77 80 82 82 83 83 83 84 84 84 84 84 83 84 86 92 90
42 44 47 51 51 52 52 51 53 56 60 66 72 76 79 82 84 84 84 82 83 83 83 84 84 84 86 89 92 91 92 96
42 41 43 47 50 51 54 59 63 67 73 77 80 82 85 86 85 85 84 85 85 84 83 84 87 87 88 88 89 90 88 88
43 44 46 47 50 55 58 63 68 73 79 82 83 85 84 81 81 81 81 82 82 82 82 83 84 83 81 80 76 70 65 65
Wind_Direction
131 123 75 18 345 335 331 328 318 315 312 316 309 309 306 306 305 302 297 294 294 294 291 291 291 290 285 281 281 283 281 278
87 35 310 319 322 320 320 314 315 313 312 310 302 308 306 306 303 298 297 297 295 294 294 296 296 294 290 286 279 274 275 272
315 296 311 314 316 317 316 311 312 306 307 303 302 304 304 302 300 299 297 298 298 298 298 297 295 293 293 293 289 281 272 272
267 282 281 302 315 312 310 307 309 310 312 309 305 301 300 301 297 298 300 303 303 301 301 303 301 295 292 291 287 283 280 279
279 300 307 307 313 311 312 315 314 312 310 309 309 310 310 309 308 305 305 304 302 299 299 298 297 294 293 290 285 282 281 280
302 297 306 308 309 305 305 307 310 316 316 314 312 313 315 313 308 303 301 300 299 297 296 296 294 293 290 290 291 287 281 280
312 313 290 297 319 311 314 313 311 312 318 314 311 311 307 307 305 301 299 297 297 295 292 290 290 290 287 282 279 282 283 282
312 279 293 306 316 318 315 314 309 306 309 311 312 313 306 309 307 303 300 299 298 296 291 286 287 288 288 286 285 280 278 278
305 313 309 314 313 317 315 315 310 309 312 308 313 314 313 314 310 307 306 308 306 304 298 291 289 289 286 282 280 281 282 280
313 320 316 317 319 318 315 315 312 311 311 311 312 313 313 312 310 308 309 306 302 301 297 293 292 292 292 291 290 288 285 283
307 307 307 314 313 313 311 309 308 311 313 313 313 313 313 312 309 306 307 304 300 297 295 292 291 291 291 291 291 288 285 283
305 309 310 309 308 309 309 308 309 312 311 312 311 311 313 311 309 308 306 302 300 298 295 293 293 292 290 289 288 287 286 285
303 303 303 303 307 308 308 308 310 310 311 312 312 311 310 309 306 303 303 304 302 301 300 299 297 295 293 289 287 285 284 284
298 297 299 304 305 305 305 306 307 309 309 308 306 307 308 307 307 307 305 303 301 300 298 296 296 294 291 289 286 283 282 282
294 298 300 302 302 303 304 305 306 306 305 306 309 308 306 305 305 303 302 302 301 299 297 295 292 290 288 287 285 283 281 279
296 298 297 297 299 302 303 305 305 304 306 306 305 306 305 306 305 303 301 299 298 296 294 292 290 289 287 286 286 285 281 276
298 298 301 300 298 299 301 302 302 304 305 306 305 305 304 301 299 298 298 296 296 294 293 291 289 287 286 284 283 282 284 282
296 296 298 302 307 307 306 304 305 305 305 305 304 303 301 300 300 300 299 298 295 293 292 291 290 287 286 283 280 278 277 277
295 298 297 300 302 305 308 311 312 311 309 305 304 303 302 302 301 298 296 295 293 292 291 290 288 287 285 284 283 281 278 273
303 303 305 309 311 311 310 308 308 306 305 305 305 303 301 299 297 297 297 296 294 294 293 291 290 289 286 284 283 281 280 277
Height
5847 5848 5848 5848 5847 5845 5844 5843 5842 5839 5838 5836 5833 5832 5830 5827 5825 5824 5821 5819 5818 5816 5814 5813 5811 5809 5808 5807 5805 5804 5801 5801
5848 5847 5846 5844 5843 5842 5841 5840 5838 5835 5834 5833 5829 5829 5826 5823 5821 5819 5816 5815 5813 5810 5809 5808 5806 5804 5803 5801 5800 5800 5797 5797
5845 5844 5842 5841 5840 5839 5838 5836 5834 5832 5830 5828 5826 5824 5822 5819 5816 5814 5811 5809 5807 5805 5803 5801 5800 5798 5797 5795 5794 5794 5792 5790
5843 5841 5841 5838 5838 5836 5835 5833 5831 5827 5825 5822 5820 5819 5816 5814 5813 5809 5807 5804 5801 5799 5796 5795 5793 5791 5789 5789 5787 5786 5785 5784
5838 5838 5838 5839 5838 5835 5832 5828 5826 5824 5821 5818 5815 5811 5809 5807 5804 5802 5799 5797 5794 5792 5789 5787 5786 5783 5781 5780 5779 5778 5777 5777
5838 5837 5837 5834 5830 5828 5824 5823 5820 5819 5817 5813 5809 5807 5804 5800 5796 5794 5791 5789 5786 5784 5782 5779 5777 5776 5774 5772 5770 5770 5769 5768
5837 5833 5828 5827 5824 5822 5818 5817 5813 5811 5810 5807 5804 5802 5798 5795 5791 5787 5784 5780 5777 5775 5773 5771 5769 5768 5766 5766 5765 5762 5760 5758
5830 5823 5817 5820 5822 5818 5814 5811 5807 5805 5804 5801 5798 5795 5790 5787 5782 5778 5775 5773 5769 5767 5765 5763 5762 5760 5758 5756 5755 5755 5753 5751
5824 5822 5815 5816 5817 5812 5809 5806 5802 5797 5795 5792 5791 5787 5780 5778 5772 5768 5765 5762 5759 5757 5754 5752 5751 5750 5748 5746 5744 5743 5742 5741
5817 5813 5813 5809 5809 5803 5801 5798 5793 5790 5785 5780 5778 5777 5774 5767 5763 5758 5755 5753 5749 5747 5744 5742 5738 5735 5734 5732 5731 5729 5728 5727
5818 5813 5810 5806 5803 5798 5793 5790 5787 5781 5775 5769 5764 5759 5756 5755 5751 5747 5745 5741 5737 5734 5731 5728 5725 5723 5721 5720 5718 5716 5714 5712
5813 5808 5803 5800 5797 5792 5787 5783 5778 5771 5766 5762 5757 5753 5750 5745 5739 5735 5731 5728 5725 5721 5718 5714 5711 5707 5705 5705 5702 5700 5698 5696
5809 5805 5800 5795 5790 5784 5779 5773 5767 5762 5756 5750 5744 5741 5737 5734 5730 5724 5721 5716 5711 5705 5700 5696 5693 5687 5685 5685 5683 5681 5679 5677
5802 5798 5792 5787 5782 5777 5772 5767 5761 5755 5748 5742 5737 5732 5727 5721 5715 5710 5705 5700 5694 5689 5684 5679 5675 5665 5659 5659 5660 5661 5657 5656
5793 5790 5785 5778 5773 5769 5765 5760 5754 5747 5740 5733 5727 5720 5713 5706 5701 5695 5689 5682 5676 5669 5662 5657 5653 5648 5636 5631 5630 5629 5631 5633
5787 5781 5777 5772 5766 5760 5754 5749 5744 5737 5731 5724 5716 5708 5699 5692 5685 5679 5672 5664 5656 5649 5640 5633 5627 5623 5618 5609 5602 5598 5598 5604
5776 5769 5763 5759 5756 5753 5747 5741 5734 5727 5719 5711 5703 5694 5686 5677 5668 5661 5654 5644 5635 5628 5618 5610 5604 5597 5593 5589 5584 5575 5565 5562
5767 5760 5753 5746 5742 5737 5732 5728 5723 5716 5708 5699 5689 5680 5667 5654 5645 5637 5628 5618 5609 5601 5592 5584 5577 5570 5564 5559 5553 5552 5546 5534
5757 5753 5747 5740 5734 5728 5721 5713 5706 5698 5689 5679 5670 5658 5645 5634 5622 5614 5605 5595 5586 5579 5570 5561 5551 5544 5535 5530 5522 5513 5508 5505
5744 5740 5736 5731 5725 5718 5712 5704 5696 5686 5674 5662 5650 5638 5626 5614 5601 5592 5582 5572 5562 5554 5545 5535 5524 5514 5505 5496 5490 5485 5479 5473